Regional Weather Roundup
Issued by NWS

Home | Current Version | Previous Version | Graphics & Text | Print | Product List | Glossary On
Versions: 1 2 3 4 5 6 7 8 9 10 11 12 13 14 15 16 17 18 19 20 21 22 23 24 25 26 27 28 29 30 31 32 33 34 35 36 37 38 39 40 41 42 43 44 45 46 47 48 49 50
629
ASUS45 KTFX 251810
RWRMT
MONTANA REGIONAL WEATHER ROUNDUP
NATIONAL WEATHER SERVICE GREAT FALLS MT
1200 PM MDT SUN JUN 25 2017

NOTE: "FAIR" INDICATES FEW OR NO CLOUDS BELOW 12000 FEET WITH NO
SIGNIFICANT WEATHER AND/OR OBSTRUCTIONS TO VISIBILITY.

MTZ001>007-043-251900-
WEST OF THE DIVIDE

CITY           SKY/WX    TMP DP  RH WIND       PRES   REMARKS
KALISPELL      SUNNY     74  49  41 VRB3      30.21F
MISSOULA       SUNNY     75  45  34 CALM      30.22F
BUTTE          SUNNY     72  35  25 CALM      30.34S
MULLAN PASS    SUNNY     69  40  34 SE6       30.33R
ANACONDA         N/A     72  39  30 NE3       30.29F
DEER LODGE       N/A     72  43  35 CALM      30.32F
EUREKA           N/A    N/A N/A N/A MISG        N/A
HAMILTON         N/A     73  41  31 NW3       30.23F
$$

MTZ008-052>055-251900-
SOUTHWEST MONTANA

CITY           SKY/WX    TMP DP  RH WIND       PRES   REMARKS
BOZEMAN        SUNNY     70  43  37 VRB6      30.31F
DILLON         SUNNY     68  43  40 NW5       30.32F
W YELLOWSTONE  SUNNY     68  34  28 CALM      30.39F
ENNIS          SUNNY     68  39  34 N5        30.38F
THREE FORKS      N/A     71  42  35 SE3       30.27F
$$

MTZ009-010-012-014-046-048-049-054-251900-
EAST SLOPES AND CENTRAL MONTANA

CITY           SKY/WX    TMP DP  RH WIND       PRES   REMARKS
CUT BANK       SUNNY     71  42  35 SE12      30.27F
GREAT FALLS    SUNNY     73  42  32 E8        30.27F
MALMSTROM AFB  SUNNY     72  43  36 E12       30.27F
HELENA         SUNNY     74  42  31 E7        30.28F
CHOTEAU          N/A     73  43  33 VRB6G14   30.29F
CONRAD           N/A     72  48  42 E12       30.27F
$$

MTZ011-013-016-021-045-047-050-051-251900-
NORTH CENTRAL MONTANA

CITY           SKY/WX    TMP DP  RH WIND       PRES   REMARKS
HAVRE          SUNNY     73  37  27 S8        30.27F
LEWISTOWN      SUNNY     69  34  27 CALM      30.32S
N BAR RANCH      N/A     68  34  28 VRB3G13   30.35F
CHINOOK          N/A     72  39  30 E3        30.27F
FORT BENTON      N/A     73  37  27 MISG      30.28
$$

MTZ017>020-022>027-061-062-251900-
NORTHEAST MONTANA

CITY           SKY/WX    TMP DP  RH WIND       PRES   REMARKS
GLASGOW        MOSUNNY   76  39  26 N10       30.26S
JORDAN           N/A     75  33  21 NE8       30.27S
SIDNEY         SUNNY     68  40  35 CALM      30.27S
WOLF POINT     MOSUNNY   75  40  28 N9        30.26F
MALTA          PTSUNNY   73  41  31 VRB7      30.26F
PLENTYWOOD       N/A     66  43  42 CALM      30.27S
POPLAR           N/A     70  41  35 NE8       30.27S
$$

MTZ028>42-056>058-251900-
SOUTHCENTRAL AND SOUTHEAST MONTANA

CITY           SKY/WX    TMP DP  RH WIND       PRES   REMARKS
BAKER          SUNNY     76  30  18 NW13G24   30.27F
BILLINGS       MOSUNNY   72  37  28 SW6       30.30F
LIVINGSTON     SUNNY     71  39  31 CALM      30.31F
MILES CITY     SUNNY     77  30  17 SW9G20    30.25F
BIG TIMBER     SUNNY     72  36  26 E7        30.34F
FORSYTH          N/A     73  36  25 SW9G20    30.27S
ROUNDUP          N/A     73  35  24 NW1       30.19F
$$

REGIONAL REPORTS...DAKOTAS

CITY           SKY/WX    TMP DP  RH WIND       PRES   REMARKS
WILLISTON      PTSUNNY   68  47  46 VRB3      30.27F
MINOT          MOSUNNY   67  45  45 VRB7      30.24S
DICKINSON      CLOUDY    66  33  29 VRB5      30.25F
BEACH            N/A     72  34  25 N13G20    30.29S
CROSBY           N/A     66  45  45 N8G14     30.27S
TIOGA          PTSUNNY   63  45  51 N12       30.28S
WATFORD CITY     N/A     64  48  55 NE7       30.26F
BISMARCK       CLOUDY    54  49  83 SW6       30.27F
GRAND FORKS    PTSUNNY   64  45  49 N10G23    30.21F
FARGO          PTSUNNY   66  44  45 NW15G22   30.21F
BUFFALO SD       N/A     75  30  19 W13G18    30.21F
RAPID CITY     SUNNY     72  35  25 SE7       30.29F
$$

REGIONAL REPORTS...WYOMING/IDAHO/WASHINGTON

CITY           SKY/WX    TMP DP  RH WIND       PRES   REMARKS
GILLETTE       SUNNY     74  32  21 NW13G20   30.30F
SHERIDAN       SUNNY     73  38  27 VRB3      30.31F
BUFFALO WY     SUNNY     70  36  28 NE9       30.35F
CODY           SUNNY     69  34  27 VRB5      30.36F
YELLOWSTONE LA   N/A     58  39  49 VRB3      30.48F
IDAHO FALLS    SUNNY     76  51  41 NW3       30.28S
SALMON         SUNNY     73  45  35 N3        30.23F
BOISE          SUNNY     85  44  23 VRB5      30.12F
SPOKANE        MOSUNNY   79  46  31 NE8       30.12S
$$

REGIONAL REPORTS...ALBERTA

CITY           SKY/WX    TMP DP  RH WIND       PRES   REMARKS
EDMONTON       SUNNY     73  48  40 SE12G20   30.19F
CALGARY        MOSUNNY   73  45  35 S18       30.22F
LETHBRIDGE     SUNNY     75  45  33 S15       30.23S
MEDICINE HAT   MOSUNNY   73  43  33 SE5       30.25F
WATERTON GATE    N/A     72  50  46 NE6         N/A
CARDSTON         N/A     75  46  35 SE7         N/A
MILK RIVER       N/A     73  43  33 S13G18      N/A
$$

REGIONAL REPORTS...SASKATCHEWAN

CITY           SKY/WX    TMP DP  RH WIND       PRES   REMARKS
SWIFT CURRENT  MOSUNNY   64  45  48 N3        30.29R
REGINA         PTSUNNY   64  43  45 NW5       30.28R
SASKATOON      MOSUNNY   66  43  42 E3        30.30F
CYPRESS HILLS    N/A     64  36  34 NW5         N/A
VAL MARIE        N/A     73  39  29 NW7         N/A
ROCKGLEN         N/A     68  39  34 N14G21      N/A
ASSINIBOIA       N/A     70  48  46 SE12G17     N/A
$$




USA.gov is the U.S. government's official web portal to all federal, state and local government web resources and services.